Total_Precipitation_Accumulation
1.18 1.14 1.08 0.92 0.90 0.88 0.84 0.72 0.65 0.76 0.65 0.52 0.38 0.34 0.34 0.37 0.43 0.55 0.63 0.78 0.96 0.93 0.94 1.18 1.48 2.00 2.14
1.17 1.08 1.05 1.01 1.06 1.00 0.80 0.70 0.54 0.56 0.56 0.49 0.42 0.34 0.33 0.33 0.37 0.50 0.67 0.81 0.98 1.08 1.08 1.08 1.05 1.47 2.36
1.50 1.07 0.97 0.88 0.84 0.69 0.51 0.48 0.46 0.60 0.61 0.59 0.56 0.53 0.49 0.50 0.51 0.56 0.70 0.96 1.16 1.10 1.21 1.31 1.45 1.41 2.01
1.67 1.28 1.08 0.99 1.09 0.94 0.79 0.62 0.56 0.54 0.61 0.64 0.67 0.68 0.68 0.68 0.67 0.67 0.71 0.83 1.22 1.32 1.36 1.23 1.53 1.40 1.61
1.69 1.45 1.17 0.96 0.94 0.89 0.98 0.89 0.92 0.78 0.79 0.85 0.81 0.74 0.66 0.73 0.77 0.79 0.80 0.84 1.05 1.47 1.66 1.84 1.72 1.78 1.85
1.46 1.09 0.81 0.80 0.75 0.87 1.06 1.05 0.87 0.46 0.61 0.67 0.72 0.82 0.86 0.87 1.05 0.85 0.78 0.85 0.91 1.18 1.42 1.51 1.67 1.73 1.73
0.96 0.87 0.80 0.79 1.09 1.18 1.00 1.00 0.82 0.55 0.73 0.76 0.68 0.68 0.65 0.71 0.86 0.76 0.83 0.92 1.03 1.15 1.28 1.37 1.52 1.67 1.59
0.95 1.04 1.22 1.15 1.06 1.14 1.06 0.99 0.79 0.70 0.76 0.93 0.67 0.69 0.60 0.61 0.86 0.65 0.69 0.85 1.01 1.12 1.25 1.41 1.53 1.66 1.51
1.00 1.10 1.00 0.93 0.97 1.12 1.20 1.15 0.97 0.65 0.68 0.84 0.78 0.74 0.72 0.76 0.90 1.05 0.98 0.97 0.94 0.91 0.94 1.12 1.31 1.43 1.44
0.87 0.67 0.67 0.69 0.77 0.83 1.18 1.69 1.14 0.98 0.61 1.05 0.86 0.86 1.21 0.74 0.85 0.94 0.93 1.02 0.95 0.92 0.89 0.98 1.20 1.02 1.02
0.65 0.62 0.52 0.51 0.57 0.64 0.82 1.51 1.78 1.28 0.77 1.69 1.60 0.85 1.21 0.88 0.95 0.98 0.83 0.89 0.91 1.04 1.15 1.10 1.37 1.37 1.22
0.39 0.38 0.38 0.35 0.30 0.31 0.41 0.61 0.94 1.29 0.82 1.09 1.79 0.95 1.37 1.10 0.82 0.84 0.82 0.93 1.18 1.38 1.46 1.21 1.31 1.51 1.41
0.24 0.21 0.22 0.24 0.26 0.28 0.35 0.42 0.50 0.64 0.72 0.76 1.20 1.20 1.42 1.29 0.94 0.77 0.99 0.97 1.06 1.15 1.22 1.37 1.34 1.18 1.14
0.32 0.24 0.26 0.31 0.36 0.45 0.65 0.56 0.69 0.56 0.65 0.82 1.00 1.20 1.21 0.89 1.03 0.98 0.88 1.15 1.07 1.05 1.00 1.23 1.40 1.11 0.80
0.56 0.60 0.55 0.55 0.57 0.64 0.91 1.06 1.11 0.80 0.71 0.68 0.64 0.68 0.80 0.87 0.96 0.77 0.81 0.91 1.15 1.13 0.95 1.17 1.24 1.16 0.86
0.49 0.52 0.64 0.66 0.73 0.75 0.99 1.19 1.14 0.92 0.90 0.79 0.68 0.70 0.69 0.68 0.81 1.00 0.96 0.98 1.18 0.98 0.83 0.91 1.05 1.26 0.98
0.78 0.81 0.81 0.72 0.77 0.82 0.92 0.98 0.93 0.78 0.64 0.51 0.63 0.89 0.99 0.61 0.54 0.87 1.41 1.20 0.95 0.82 0.64 0.64 0.85 1.03 0.89